Location: Natural Bridges National Monument
(37.6093°N, 109.9767°W)
Time: 23:14:54
(UTC-07:00)

Amateur Radio Satellites - All Passes

Search period start: 20 December 2014 22:44
Search period end: 21 December 2014 22:44
Location: Natural Bridges National Monument, 37.6093°N, 109.9767°W

Satellite Date Start Highest point End Downlink Frequencies (MHz)
Time Altitude Azimuth
CUBEBUG 2 20 Dec 22:45:54 22:48:17 15° 268° (W) 22:50:41 437.445
POPSAT HIP 1 20 Dec 22:49:53 22:53:50 36° 98° (E) 22:57:47 437.405
TIGRISAT 20 Dec 22:51:19 22:56:00 63° 101° (E) 23:00:40 435.000
ZACube-1 20 Dec 22:55:07 22:57:44 16° 267° (W) 23:00:23 437.345
VELOX 1 20 Dec 22:56:21 23:00:11 29° 263° (W) 23:04:02 145.980
ESTCUBE 1 20 Dec 22:58:55 23:03:27 73° 258° (WSW) 23:07:59 437.505/2401.250
TISAT 1 20 Dec 23:11:12 23:14:58 33° 71° (ENE) 23:18:44 437.305
SPROUT 20 Dec 23:15:17 23:19:08 34° 71° (ENE) 23:22:59 437.525
BUGSAT 1 20 Dec 23:15:25 23:19:25 57° 101° (E) 23:23:26 437.445
DUCHIFAT 1 20 Dec 23:17:32 23:21:48 79° 102° (ESE) 23:26:03 145.980
UNISAT 6 20 Dec 23:20:40 23:25:19 62° 285° (WNW) 23:29:58 437.425
O/OREOS (USA 219) 20 Dec 23:27:50 23:28:10 10° 97° (E) 23:28:30 437.305
50 SAT 20 Dec 23:30:00 23:31:52 13° 268° (W) 23:33:44 437.505
QB50P2 20 Dec 23:31:19 23:35:35 69° 285° (WNW) 23:39:50 145.880/145.840
POLYITAN 1 20 Dec 23:40:19 23:44:30 54° 286° (WNW) 23:48:42 437.675
BEESAT 3 20 Dec 23:40:58 23:43:37 17° 251° (WSW) 23:46:15 437.485
NANOSAT C BR1 20 Dec 23:42:19 23:46:28 52° 286° (WNW) 23:50:36 145.865
PCSat 20 Dec 23:42:34 23:47:55 62° 246° (WSW) 23:53:14 145.827
CUBEBUG 1 20 Dec 23:45:04 23:48:31 23° 265° (W) 23:51:59 437.445
AIST 2 20 Dec 23:48:23 23:52:17 35° 246° (WSW) 23:56:07 435.215
YUBILEINY 20 Dec 23:48:27 23:57:02 64° 92° (E) 00:05:36 435.215
ANTELSAT 20 Dec 23:53:07 23:57:09 29° 290° (WNW) 00:01:11 437.575/2403.000
QB50P1 20 Dec 23:57:00 00:00:53 35° 288° (WNW) 00:04:46 145.935-145.965
M-CUBED/EXP-1 PRIME 21 Dec 00:04:07 00:06:45 15° 59° (ENE) 00:09:24 437.505
SWISSCUBE 21 Dec 00:05:27 00:09:12 23° 67° (ENE) 00:12:56 437.505
ITUPSAT 1 21 Dec 00:06:13 00:09:49 21° 67° (ENE) 00:13:25 437.325
RS-15 21 Dec 00:21:07 00:22:52 10° 265° (W) 00:24:38 29.354- 29.394
POPSAT HIP 1 21 Dec 00:26:37 00:29:27 18° 293° (WNW) 00:32:17 437.405
BEESAT 21 Dec 00:29:37 00:34:00 37° 71° (ENE) 00:38:24 436.000
TIGRISAT 21 Dec 00:30:00 00:32:11 13° 296° (WNW) 00:34:21 435.000
TISAT 1 21 Dec 00:47:59 00:50:51 18° 266° (W) 00:53:43 437.305
SPROUT 21 Dec 00:52:22 00:55:17 18° 266° (W) 00:58:13 437.525
BUGSAT 1 21 Dec 00:53:38 00:54:24 11° 296° (WNW) 00:55:11 437.445
O/OREOS (USA 219) 21 Dec 01:02:32 01:06:56 63° 292° (WNW) 01:11:23 437.305
AUBIESAT-1 21 Dec 01:10:30 01:15:14 60° 69° (ENE) 01:20:03 437.475
Oscar 19 21 Dec 01:23:51 01:28:45 40° 98° (E) 01:33:36 437.125/150
STARS 21 Dec 01:24:40 01:27:35 18° 66° (ENE) 01:30:32 437.465
KKS-1 21 Dec 01:28:08 01:31:56 29° 70° (ENE) 01:35:46 437.445
M-CUBED/EXP-1 PRIME 21 Dec 01:36:21 01:41:08 68° 254° (WSW) 01:46:03 437.505
Gurwin Techsat 1B 21 Dec 01:40:08 01:41:59 12° 90° (E) 01:43:50 435.225
ITAMSAT 1 21 Dec 01:41:11 01:45:01 21° 94° (E) 01:48:50 435.822/435.867
SWISSCUBE 21 Dec 01:42:29 01:46:50 34° 262° (W) 01:51:12 437.505
ITUPSAT 1 21 Dec 01:42:59 01:47:26 37° 262° (W) 01:51:54 437.325
YUBILEINY 21 Dec 01:47:29 01:54:24 26° 291° (WNW) 02:01:22 435.215
BEESAT 21 Dec 02:08:22 02:11:55 21° 266° (W) 02:15:30 436.000
VERMONT LUNAR 21 Dec 02:41:21 02:44:39 39° 153° (SSE) 02:47:58 437.305
AUBIESAT-1 21 Dec 02:47:54 02:50:28 14° 264° (W) 02:53:05 437.475
HORYU 2 21 Dec 02:52:26 02:55:59 22° 95° (E) 02:59:30 437.375
PHONESAT 2.4 21 Dec 02:57:16 03:00:34 34° 151° (SSE) 03:03:53 2401.200-2431.200
STARS 21 Dec 02:59:42 03:03:45 38° 262° (W) 03:07:51 437.465
Oscar 19 21 Dec 03:03:47 03:07:48 23° 294° (WNW) 03:11:47 437.125/150
KKS-1 21 Dec 03:05:04 03:08:33 23° 265° (W) 03:12:03 437.445
Gurwin Techsat 1B 21 Dec 03:17:09 03:22:27 75° 285° (WNW) 03:27:44 435.225
ITAMSAT 1 21 Dec 03:19:47 03:24:39 42° 289° (WNW) 03:29:29 435.822/435.867
AO-7 21 Dec 03:47:04 03:54:35 35° 98° (E) 04:02:00 29.400- 29.500
AIST 1 21 Dec 03:51:14 03:55:31 85° 83° (E) 03:59:46
GONETS M04 21 Dec 03:53:45 03:56:47 12° 75° (ENE) 03:59:50
MOZHAYETS 4 21 Dec 04:16:24 04:20:58 59° 74° (ENE) 04:25:33
VERMONT LUNAR 21 Dec 04:19:24 04:22:54 64° 348° (NNW) 04:26:25 437.305
JAS-2 21 Dec 04:20:32 04:24:04 17° 91° (E) 04:27:27 435.910
HORYU 2 21 Dec 04:28:40 04:32:38 31° 290° (WNW) 04:36:35 437.375
PHONESAT 2.4 21 Dec 04:35:31 04:39:08 70° 347° (NNW) 04:42:45 2401.200-2431.200
PRISM 21 Dec 04:50:59 04:54:01 20° 67° (ENE) 04:57:03 437.425
SO-50 21 Dec 05:03:25 05:07:16 23° 48° (NE) 05:11:07 436.795
CUTE-I 21 Dec 05:16:04 05:16:42 10° 90° (E) 05:17:20 437.470
AO-7 21 Dec 05:39:32 05:47:27 49° 295° (WNW) 05:55:20 29.400- 29.500
CUBESAT XI-V 21 Dec 05:41:27 05:45:37 33° 71° (ENE) 05:49:47 437.345
GONETS M04 21 Dec 05:43:11 05:51:59 76° 94° (E) 06:00:48
MOZHAYETS 4 21 Dec 05:56:42 05:58:32 12° 269° (W) 06:00:22
VERMONT LUNAR 21 Dec 05:58:00 06:01:28 53° 6° (N) 06:04:56 437.305
JAS-2 21 Dec 06:04:14 06:09:35 49° 289° (WNW) 06:14:34 435.910
STRAND 1 21 Dec 06:04:33 06:09:30 53° 72° (ENE) 06:14:28 437.568
PHONESAT 2.4 21 Dec 06:14:30 06:18:03 53° 4° (N) 06:21:37 2401.200-2431.200
Cubesat XI-IV 21 Dec 06:19:01 06:24:10 48° 100° (E) 06:29:17 437.490
PRISM 21 Dec 06:25:31 06:29:18 32° 262° (W) 06:33:06 437.425
SO-50 21 Dec 06:43:20 06:48:02 47° 245° (WSW) 06:52:42 436.795
CUTE-I 21 Dec 06:52:00 06:57:20 83° 285° (WNW) 07:02:39 437.470
CUBESAT XI-V 21 Dec 07:19:28 07:23:05 22° 266° (W) 07:26:41 437.345
VERMONT LUNAR 21 Dec 07:36:22 07:39:52 64° 202° (SSW) 07:43:21 437.305
GONETS M04 21 Dec 07:43:17 07:49:40 22° 293° (WNW) 07:56:06
STRAND 1 21 Dec 07:45:53 07:48:58 16° 267° (W) 07:52:05 437.568
PHONESAT 2.4 21 Dec 07:53:14 07:56:52 73° 201° (SSW) 08:00:29 2401.200-2431.200
Cubesat XI-IV 21 Dec 08:00:05 08:03:52 20° 295° (WNW) 08:07:38 437.490
BRITE-PL 21 Dec 08:16:54 08:20:35 21° 95° (E) 08:24:27 437.365/2234.400
MaSat-1 21 Dec 08:21:50 08:23:58 31° 111° (ESE) 08:26:02 437.345
HO-68 21 Dec 08:26:52 08:33:05 31° 97° (E) 08:39:15 435.675
GOMX 1 21 Dec 08:39:44 08:43:49 26° 96° (E) 08:48:06 467.674
AAUSAT CUBESAT 2 21 Dec 08:46:27 08:49:42 21° 95° (E) 08:52:55 437.432
DOVE 4 21 Dec 09:01:39 09:06:01 33° 97° (E) 09:10:35 437.250
CANX-2 21 Dec 09:01:50 09:06:07 58° 100° (E) 09:10:21 2200.000
CUBEBUG 2 21 Dec 09:02:56 09:04:08 11° 90° (E) 09:05:20 437.445
CUSAT 1 21 Dec 09:14:15 09:17:29 34° 89° (E) 09:21:40 437.405
ANTELSAT 21 Dec 09:14:50 09:17:52 19° 66° (ENE) 09:20:57 437.575/2403.000
QB50P1 21 Dec 09:15:25 09:16:33 11° 64° (ENE) 09:17:41 145.935-145.965
VERMONT LUNAR 21 Dec 09:15:54 09:17:44 14° 216° (SW) 09:19:35 437.305
COMPASS 1 21 Dec 09:21:33 09:25:48 64° 101° (E) 09:29:59 437.405
CINEMA 3 21 Dec 09:21:49 09:26:05 31° 97° (E) 09:30:27 145.822/145.860
SEEDS 21 Dec 09:28:06 09:32:24 87° 284° (WNW) 09:36:40 437.485
CUTE 1.7 + AOD 2 21 Dec 09:32:34 09:36:51 66° 284° (WNW) 09:41:06 437.475
PHONESAT 2.4 21 Dec 09:32:48 09:35:10 17° 215° (SW) 09:37:31 2401.200-2431.200
DELFI C3 21 Dec 09:33:58 09:37:35 29° 97° (E) 09:41:10 145.870
FUNcube-1 21 Dec 09:35:11 09:38:17 18° 93° (E) 09:41:23 145.935
O/OREOS (USA 219) 21 Dec 09:36:12 09:39:08 17° 58° (ENE) 09:42:04 437.305
UWE-3 21 Dec 09:37:22 09:41:03 23° 95° (E) 09:44:45 435.000/436.395/437.385
POPSAT HIP 1 21 Dec 09:41:50 09:45:06 22° 69° (ENE) 09:48:22 437.405
TIGRISAT 21 Dec 09:48:36 09:52:41 42° 72° (ENE) 09:56:53 435.000
DX 1 21 Dec 09:50:25 09:54:31 40° 99° (E) 09:58:37 434.975-435.025
BRITE-PL 21 Dec 09:54:43 09:59:07 38° 287° (WNW) 10:03:50 437.365/2234.400
AISAT 21 Dec 09:56:58 09:59:41 16° 93° (E) 10:02:23 437.250
YUBILEINY 21 Dec 10:01:40 10:08:51 28° 70° (ENE) 10:16:00 435.215
HUMSAT D 21 Dec 10:03:25 10:06:40 20° 94° (E) 10:09:54 437.325/437.525
BUGSAT 1 21 Dec 10:04:16 10:07:53 31° 71° (ENE) 10:11:28 437.445
DUCHIFAT 1 21 Dec 10:08:35 10:12:34 44° 73° (ENE) 10:16:35 145.980
DANDE 21 Dec 10:09:33 10:12:53 57° 283° (WNW) 10:17:22 436.750
Oscar 11 21 Dec 10:11:26 10:15:49 80° 284° (WNW) 10:20:10 145.826/435.025
RS-15 21 Dec 10:13:42 10:21:49 25° 102° (ESE) 10:29:52 29.354- 29.394
HO-68 21 Dec 10:14:10 10:20:53 46° 293° (WNW) 10:27:35 435.675
GOMX 1 21 Dec 10:17:39 10:21:53 31° 289° (WNW) 10:26:21 467.674
UNISAT 6 21 Dec 10:17:53 10:22:14 87° 257° (WSW) 10:26:43 437.425
UKube-1 21 Dec 10:20:28 10:24:49 90° 103° (ESE) 10:29:09 .
AAUSAT CUBESAT 2 21 Dec 10:21:42 10:25:20 28° 289° (WNW) 10:28:57 437.432
QB50P2 21 Dec 10:22:31 10:26:41 69° 75° (ENE) 10:30:54 145.880/145.840
POLYITAN 1 21 Dec 10:31:37 10:35:49 88° 77° (ENE) 10:40:03 437.675
NANOSAT C BR1 21 Dec 10:33:07 10:37:19 90° 255° (WSW) 10:41:33 145.865
CUBEBUG 2 21 Dec 10:36:33 10:41:11 68° 285° (WNW) 10:45:54 437.445
DOVE 4 21 Dec 10:39:41 10:43:37 26° 290° (WNW) 10:47:43 437.250
CANX-2 21 Dec 10:39:58 10:41:30 12° 296° (WNW) 10:43:03 2200.000
ZACube-1 21 Dec 10:43:44 10:48:17 78° 284° (WNW) 10:52:53 437.345
QB50P1 21 Dec 10:47:45 10:51:54 59° 259° (W) 10:56:04 145.935-145.965
VELOX 1 21 Dec 10:48:25 10:52:48 60° 101° (E) 10:57:10 145.980
ANTELSAT 21 Dec 10:50:20 10:54:21 36° 262° (W) 10:58:29 437.575/2403.000
ESTCUBE 1 21 Dec 10:54:18 10:58:07 27° 96° (E) 11:01:54 437.505/2401.250
CUSAT 1 21 Dec 10:58:51 11:01:01 14° 298° (WNW) 11:03:30 437.405
CINEMA 3 21 Dec 10:59:12 11:03:07 26° 290° (WNW) 11:07:09 145.822/145.860
COMPASS 1 21 Dec 11:00:13 11:00:56 10° 296° (WNW) 11:01:38 437.405
DELFI C3 21 Dec 11:09:39 11:12:39 20° 292° (WNW) 11:15:37 145.870
50 SAT 21 Dec 11:09:40 11:13:50 83° 283° (WNW) 11:17:59 437.505
FUNcube-1 21 Dec 11:10:30 11:14:44 39° 288° (WNW) 11:19:00 145.935
UWE-3 21 Dec 11:13:29 11:17:34 32° 289° (WNW) 11:21:41 435.000/436.395/437.385
O/OREOS (USA 219) 21 Dec 11:14:27 11:18:45 45° 254° (WSW) 11:23:04 437.305
POPSAT HIP 1 21 Dec 11:17:17 11:20:51 27° 264° (W) 11:24:26 437.405
TIGRISAT 21 Dec 11:27:06 11:29:39 15° 268° (W) 11:32:14 435.000
DX 1 21 Dec 11:27:41 11:30:25 17° 294° (WNW) 11:33:09 434.975-435.025
AISAT 21 Dec 11:32:17 11:36:28 42° 288° (WNW) 11:40:38 437.250
CUBEBUG 1 21 Dec 11:34:59 11:39:20 75° 102° (ESE) 11:43:39 437.445
HUMSAT D 21 Dec 11:38:38 11:42:28 31° 289° (WNW) 11:46:18 437.325/437.525
BUGSAT 1 21 Dec 11:40:37 11:43:25 18° 265° (W) 11:46:12 437.445
DUCHIFAT 1 21 Dec 11:46:39 11:48:38 13° 268° (W) 11:50:38 145.980
BEESAT 3 21 Dec 11:57:13 11:58:43 12° 108° (ESE) 12:00:14 437.485
YUBILEINY 21 Dec 11:57:39 12:06:06 59° 269° (W) 12:14:33 435.215
RS-15 21 Dec 12:21:56 12:32:53 78° 302° (WNW) 12:43:54 29.354- 29.394
VELOX 1 21 Dec 12:27:09 12:28:51 12° 296° (WNW) 12:30:33 145.980
ESTCUBE 1 21 Dec 12:31:11 12:34:52 25° 291° (WNW) 12:38:32 437.505/2401.250
TISAT 1 21 Dec 12:33:18 12:37:33 82° 103° (ESE) 12:41:47 437.305
ISS 21 Dec 12:33:46 12:36:36 26° 132° (SE) 12:39:26 145.825
BEESAT 21 Dec 12:34:40 12:35:43 11° 90° (E) 12:36:45 436.000
BEESAT 2 21 Dec 12:35:34 12:39:08 29° 113° (ESE) 12:42:45 435.950
Oscar 19 21 Dec 12:38:48 12:43:43 48° 72° (ENE) 12:48:40 437.125/150
SPROUT 21 Dec 12:39:29 12:43:49 90° 284° (WNW) 12:48:07 437.525
PCSat 21 Dec 12:40:22 12:44:28 22° 106° (ESE) 12:48:35 145.827
JUGNU 21 Dec 12:46:38 12:49:19 13° 176° (S) 12:52:00 437.505
ITAMSAT 1 21 Dec 12:57:20 13:01:37 27° 67° (ENE) 13:05:54 435.822/435.867
Gurwin Techsat 1B 21 Dec 12:58:49 13:02:10 17° 64° (ENE) 13:05:32 435.225
M-CUBED/EXP-1 PRIME 21 Dec 13:24:50 13:25:45 11° 94° (E) 13:26:40 437.505
BEESAT 3 21 Dec 13:32:22 13:36:23 54° 303° (WNW) 13:40:28 437.485
AIST 2 21 Dec 13:44:21 13:48:34 80° 119° (ESE) 13:52:52 435.215
SWISSCUBE 21 Dec 13:44:24 13:49:10 71° 102° (ESE) 13:53:53 437.505
ITUPSAT 1 21 Dec 13:45:16 13:50:01 65° 102° (ESE) 13:54:44 437.325
HORYU 2 21 Dec 13:49:58 13:52:54 17° 66° (ENE) 13:55:51 437.375
SRMSAT 21 Dec 13:52:12 13:54:34 12° 174° (S) 13:56:55 437.500
BEESAT 21 Dec 14:09:15 14:13:59 69° 285° (WNW) 14:18:42 436.000
ISS 21 Dec 14:10:09 14:13:07 30° 328° (NNW) 14:16:04 145.825
BEESAT 2 21 Dec 14:13:59 14:17:22 24° 309° (NW) 14:20:47 435.950
Oscar 19 21 Dec 14:19:49 14:23:16 18° 267° (W) 14:26:45 437.125/150
PCSat 21 Dec 14:22:22 14:27:32 45° 302° (WNW) 14:32:45 145.827
AUBIESAT-1 21 Dec 14:30:35 14:34:49 64° 105° (ESE) 14:38:38 437.475
JUGNU 21 Dec 14:35:10 14:37:29 12° 187° (S) 14:39:48 437.505
ITAMSAT 1 21 Dec 14:36:17 14:40:56 33° 263° (W) 14:45:37 435.822/435.867
Gurwin Techsat 1B 21 Dec 14:36:26 14:41:38 57° 259° (W) 14:46:52 435.225
RS-15 21 Dec 14:38:53 14:47:20 25° 328° (NNW) 14:55:55 29.354- 29.394
AO-7 21 Dec 14:43:57 14:51:33 42° 63° (ENE) 14:59:12 29.400- 29.500
STARS 21 Dec 14:51:23 14:55:38 44° 99° (E) 14:59:53 437.465
M-CUBED/EXP-1 PRIME 21 Dec 14:57:01 15:01:14 54° 291° (WNW) 15:05:03 437.505
KKS-1 21 Dec 14:57:04 15:01:34 80° 103° (ESE) 15:06:02 437.445
SWISSCUBE 21 Dec 15:24:42 15:26:23 12° 298° (WNW) 15:28:04 437.505
HORYU 2 21 Dec 15:25:01 15:29:13 41° 261° (W) 15:33:28 437.375
ITUPSAT 1 21 Dec 15:25:14 15:27:19 13° 297° (WNW) 15:29:24 437.325
AIST 2 21 Dec 15:26:02 15:27:45 12° 317° (NW) 15:29:28 435.215
SRMSAT 21 Dec 15:40:18 15:42:53 13° 184° (S) 15:45:27 437.500
GONETS M04 21 Dec 15:56:31 16:04:16 34° 72° (ENE) 16:11:54
AUBIESAT-1 21 Dec 16:07:55 16:09:05 11° 303° (WNW) 16:10:13 437.475
JAS-2 21 Dec 16:11:32 16:19:00 59° 72° (ENE) 16:25:51 435.910
MOZHAYETS 4 21 Dec 16:14:58 16:17:52 16° 92° (E) 16:20:44
AIST 1 21 Dec 16:18:39 16:22:56 55° 94° (E) 16:27:12
STARS 21 Dec 16:29:02 16:31:44 16° 294° (WNW) 16:34:26 437.465
CUTE-I 21 Dec 16:34:41 16:37:53 16° 63° (ENE) 16:41:04 437.470
AO-7 21 Dec 16:36:30 16:44:13 42° 260° (W) 16:52:02 29.400- 29.500
RS-15 21 Dec 16:59:48 17:05:37 15° 5° (N) 17:11:31 29.354- 29.394
Cubesat XI-IV 21 Dec 17:39:10 17:44:26 67° 74° (ENE) 17:49:43 437.490
MOZHAYETS 4 21 Dec 17:50:54 17:55:16 43° 287° (WNW) 17:59:36
GONETS M04 21 Dec 17:52:59 18:01:15 49° 271° (W) 18:09:27
MaSat-1 21 Dec 17:53:24 17:55:30 25° 63° (ENE) 17:57:42 437.345
JAS-2 21 Dec 17:58:03 18:04:11 26° 266° (W) 18:09:59 435.910
AIST 1 21 Dec 17:59:37 18:00:56 11° 290° (WNW) 18:02:15
PRISM 21 Dec 18:10:17 18:14:11 39° 99° (E) 18:18:02 437.425
CUTE-I 21 Dec 18:12:09 18:17:24 61° 259° (WSW) 18:22:40 437.470
STRAND 1 21 Dec 18:17:53 18:21:40 21° 94° (E) 18:25:26 437.568
HO-68 21 Dec 18:54:53 18:59:51 21° 58° (ENE) 19:04:49 435.675
ISS 21 Dec 19:03:34 19:06:07 21° 28° (NNE) 19:08:39 145.825
DANDE 21 Dec 19:08:45 19:14:08 19° 67° (ENE) 19:19:51 436.750
RS-15 21 Dec 19:13:28 19:23:12 32° 40° (NE) 19:33:14 29.354- 29.394
CUBESAT XI-V 21 Dec 19:17:00 19:21:36 76° 284° (WNW) 19:26:11 437.345
Cubesat XI-IV 21 Dec 19:22:25 19:24:57 13° 269° (W) 19:27:30 437.490
BRITE-PL 21 Dec 19:27:44 19:30:21 16° 67° (ENE) 19:32:56 437.365/2234.400
AAUSAT CUBESAT 2 21 Dec 19:37:39 19:39:24 12° 65° (ENE) 19:41:10 437.432
PRISM 21 Dec 19:46:54 19:49:22 16° 294° (WNW) 19:51:49 437.425
GOMX 1 21 Dec 19:47:42 19:50:38 19° 68° (ENE) 19:53:36 467.674
CUSAT 1 21 Dec 19:52:52 20:00:23 44° 75° (ENE) 20:08:23 437.405
CANX-2 21 Dec 19:53:21 19:57:09 33° 71° (ENE) 20:01:00 2200.000
STRAND 1 21 Dec 19:56:13 20:00:58 41° 289° (WNW) 20:05:43 437.568
DOVE 4 21 Dec 20:06:56 20:10:11 23° 69° (ENE) 20:13:28 437.250
COMPASS 1 21 Dec 20:11:32 20:15:21 34° 72° (ENE) 20:19:12 437.405
SEEDS 21 Dec 20:18:31 20:22:36 50° 74° (ENE) 20:26:45 437.485
DELFI C3 21 Dec 20:21:53 20:24:23 16° 67° (ENE) 20:26:53 145.870
CINEMA 3 21 Dec 20:23:10 20:26:15 20° 68° (ENE) 20:29:23 145.822/145.860
CUTE 1.7 + AOD 2 21 Dec 20:23:30 20:27:43 68° 76° (ENE) 20:32:00 437.475
FUNcube-1 21 Dec 20:31:56 20:32:53 11° 63° (ENE) 20:33:51 145.935
UWE-3 21 Dec 20:34:32 20:36:47 14° 65° (ENE) 20:39:03 435.000/436.395/437.385
HO-68 21 Dec 20:39:37 20:46:48 75° 256° (WSW) 20:54:00 435.675
ISS 21 Dec 20:39:41 20:42:51 46° 224° (SW) 20:45:59 145.825
DX 1 21 Dec 20:44:38 20:48:21 28° 70° (ENE) 20:52:04 434.975-435.025
DANDE 21 Dec 20:50:20 20:58:19 89° 82° (E) 21:07:04 436.750
AISAT 21 Dec 20:54:49 20:56:36 12° 64° (ENE) 20:58:24 437.250
SO-50 21 Dec 20:55:54 21:00:24 88° 302° (WNW) 21:05:05 436.795
HUMSAT D 21 Dec 20:55:58 20:57:24 12° 64° (ENE) 20:58:51 437.325/437.525
BEESAT 2 21 Dec 20:58:18 21:00:24 13° 45° (NE) 21:02:29 435.950
Oscar 11 21 Dec 21:04:13 21:08:29 61° 75° (ENE) 21:12:47 145.826/435.025
BRITE-PL 21 Dec 21:04:48 21:08:37 34° 262° (W) 21:12:25 437.365/2234.400
AAUSAT CUBESAT 2 21 Dec 21:10:29 21:14:34 52° 260° (W) 21:18:43 437.432
UKube-1 21 Dec 21:13:38 21:17:53 60° 74° (ENE) 21:22:09 .
GOMX 1 21 Dec 21:24:58 21:28:36 29° 263° (W) 21:32:14 467.674
RS-15 21 Dec 21:25:29 21:36:49 81° 243° (WSW) 21:48:41 29.354- 29.394
CANX-2 21 Dec 21:30:08 21:33:08 19° 266° (W) 21:36:10 2200.000
PCSat 21 Dec 21:30:12 21:33:11 15° 45° (NE) 21:36:10 145.827
CUBEBUG 2 21 Dec 21:33:19 21:37:28 81° 77° (ENE) 21:41:46 437.445
CUSAT 1 21 Dec 21:36:01 21:43:23 42° 270° (W) 21:51:09 437.405
ZACube-1 21 Dec 21:38:10 21:42:18 65° 75° (ENE) 21:46:32 437.345
DOVE 4 21 Dec 21:44:29 21:47:52 24° 265° (W) 21:51:18 437.250
VELOX 1 21 Dec 21:44:34 21:48:44 42° 72° (ENE) 21:52:54 145.980
TIGRISAT 21 Dec 21:44:45 21:46:06 11° 90° (E) 21:47:28 435.000
COMPASS 1 21 Dec 21:48:20 21:51:09 17° 267° (W) 21:54:00 437.405
ESTCUBE 1 21 Dec 21:52:49 21:56:12 21° 68° (ENE) 21:59:36 437.505/2401.250
BEESAT 3 21 Dec 21:53:51 21:57:54 49° 56° (NE) 22:01:54 437.485
DELFI C3 21 Dec 21:55:30 21:59:19 37° 262° (W) 22:03:11 145.870
50 SAT 21 Dec 21:56:09 21:59:59 45° 74° (ENE) 22:03:52 437.505
SEEDS 21 Dec 21:57:03 21:58:42 12° 269° (W) 22:00:22 437.485
CINEMA 3 21 Dec 21:59:41 22:03:17 28° 264° (W) 22:06:58 145.822/145.860
FUNcube-1 21 Dec 22:04:32 22:08:39 61° 259° (W) 22:12:53 145.935
AIST 2 21 Dec 22:08:29 22:12:18 30° 52° (NE) 22:16:02 435.215
UWE-3 21 Dec 22:08:56 22:12:54 44° 261° (W) 22:17:00 435.000/436.395/437.385
QB50P2 21 Dec 22:11:52 22:13:55 13° 92° (E) 22:15:58 145.880/145.840
UNISAT 6 21 Dec 22:12:29 22:16:19 24° 95° (E) 22:20:07 437.425
POLYITAN 1 21 Dec 22:20:32 22:23:21 17° 94° (E) 22:26:10 437.675
DX 1 21 Dec 22:21:09 22:24:33 22° 264° (W) 22:27:58 434.975-435.025
NANOSAT C BR1 21 Dec 22:21:32 22:24:21 17° 94° (E) 22:27:08 145.865
AISAT 21 Dec 22:28:22 22:32:42 58° 259° (W) 22:37:04 437.250
HUMSAT D 21 Dec 22:28:39 22:32:41 54° 260° (W) 22:36:48 437.325/437.525
CUBEBUG 1 21 Dec 22:29:28 22:33:40 48° 73° (ENE) 22:37:51 437.445
BEESAT 2 21 Dec 22:34:55 22:39:05 65° 242° (WSW) 22:43:10 435.950
HO-68 21 Dec 22:34:57 22:35:31 10° 272° (W) 22:36:05 435.675
QB50P1 21 Dec 22:35:36 22:39:07 25° 96° (E) 22:42:38 145.935-145.965
SO-50 21 Dec 22:39:47 22:41:40 12° 319° (NW) 22:43:35 436.795
